Regional Weather Roundup
Issued by NWS

Home | Current Version | Previous Version | Text Only | Print | Product List | Glossary Off
Versions: 1 2 3 4 5 6 7 8 9 10 11 12 13 14 15 16 17 18 19 20 21 22 23 24 25 26 27 28 29 30 31 32 33 34 35 36 37 38 39 40 41 42 43 44 45 46 47 48 49 50

000
ASUS45 KPSR 010400
RWRAZ

ARIZONA HOURLY REGIONAL WEATHER ROUNDUP
NATIONAL WEATHER SERVICE PHOENIX AZ
900 PM MST FRI JUL 31 2015

NOTE: FAIR INDICATES FEW OR NO CLOUDS BELOW 12,000 FEET WITH NO
SIGNIFICANT WEATHER AND/OR OBSTRUCTIONS TO VISIBILITY.

AZZ001>003-036-010500-
NORTHWEST ARIZONA

CITY           SKY/WX    TMP DP  RH WIND       PRES   REMARKS
KINGMAN        CLOUDY    85  52  32 SE9       30.11R
$$

AZZ004>008-015-016-018-010500-
NORTH CENTRAL ARIZONA

CITY           SKY/WX    TMP DP  RH WIND       PRES   REMARKS
GRAND CANYON   CLOUDY    62  54  74 CALM      30.38R
WILLIAMS       CLOUDY    66  48  52 CALM      30.45R
PRESCOTT       LGT RAIN  69  62  78 W12       30.26R
FLAGSTAFF      NOT AVBL
PAYSON         CLOUDY    70  59  68 E5        30.28S
PAGE           CLOUDY    87  48  25 W6        30.12R
$$

AZZ009>014-017-010500-
NORTHEAST ARIZONA

CITY           SKY/WX    TMP DP  RH WIND       PRES   REMARKS
WINSLOW        NOT AVBL
SAINT JOHNS    CLOUDY    71  57  61 CALM      30.28R
SHOW LOW       CLOUDY    63  55  77 S7        30.36R
$$

AZZ023-010500-
GREATER PHOENIX AREA

CITY           SKY/WX    TMP DP  RH WIND       PRES   REMARKS
PHOENIX        LGT RAIN  82  70  66 NE10      29.95F
LUKE AFB       CLOUDY    81  68  65 VRB6      29.94S
DEER VALLEY    LGT RAIN  83  65  54 E6        29.98F
SCOTTSDALE     LGT RAIN  84  64  50 E3        30.00F
MESA-GATEWAY   CLOUDY    81  68  65 CALM      30.01F
CHANDLER       CLOUDY    77  72  83 N7        29.99S
$$

AZZ027-028-010500-
SOUTHWEST MARICOPA COUNTY AND PINAL COUNTY

CITY           SKY/WX    TMP DP  RH WIND       PRES   REMARKS
CASA GRANDE    CLOUDY    77  70  78 E5        29.99R
$$

AZZ503-504-507>509-010500-
SOUTHEAST ARIZONA

CITY           SKY/WX    TMP DP  RH WIND       PRES   REMARKS
TUCSON         CLOUDY    79  68  69 NE6       30.10R
DAVIS-MONTHAN  CLOUDY    76  68  75 NE6       30.09R
NOGALES        MOCLDY    70  65  84 N3        30.14F
DOUGLAS          N/A    N/A N/A N/A MISG      30.17R
SAFFORD        CLOUDY    76  62  62 W16       30.07R
$$

AZZ020-021-025-026-031-010500-
SOUTHWEST ARIZONA

CITY           SKY/WX    TMP DP  RH WIND       PRES   REMARKS
YUMA           NOT AVBL
$$

CAZ031-033-041-043-047-048-061-010500-
SOUTHERN CALIFORNIA

CITY           SKY/WX    TMP DP  RH WIND       PRES   REMARKS
DOWNTOWN L.A.  MOCLDY    71  66  84 W6        29.96R
L.A. AIRPORT   CLOUDY    69  66  90 W12       29.97R
SAN DIEGO      MOCLDY    71  64  78 NW6       29.99R
BURBANK        CLEAR     76  63  64 SE9       29.96R
ONTARIO        MOCLDY    82  62  50 W12       29.96R
RIVERSIDE      MOCLDY    81  64  56 W9        29.96R
PALM SPRINGS   MOCLDY    99  53  21 NW12      29.86R
EL CENTRO NAS  MOCLDY    97  42  15 W12       29.81R
IMPERIAL       PTCLDY    93  47  20 W7        29.79R
BLYTHE         CLOUDY   103  53  19 S7        29.82R HX 101
$$

NVZ020-UTZ003-010500-
SOUTHERN NEVADA-UTAH

CITY           SKY/WX    TMP DP  RH WIND       PRES   REMARKS
LAS VEGAS      NOT AVBL
SALT LAKE CITY PTCLDY    80  29  15 SE3       30.11R
$$

NMZ009-TXZ055-010500-
NEW MEXICO-WEST TEXAS

CITY           SKY/WX    TMP DP  RH WIND       PRES   REMARKS
ALBUQUERQUE    CLOUDY    74  55  51 E14       30.30R
EL PASO        PTCLDY    86  55  34 E9        30.11R
$$


........................KEY........................
SKY/WX - SKY CONDITION/WEATHER
TMP    - TEMPERATURE IN FAHRENHEIT
DP     - DEW POINT IN FAHRENHEIT
RH     - RELATIVE HUMIDITY IN PERCENT
WIND   - DIRECTION AND SPEED IN MILES PER HOUR (MPH)
VRB    - VARIABLE WIND DIRECTION
PRES   - MEAN SEA LEVEL PRESSURE IN INCHES OF MERCURY
         F - FALLING PRESSURE   R - RISING PRESSURE
         S - STEADY PRESSURE
VSB    - VISIBILITY IN MILES
HX     - HEAT INDEX IN FAHRENHEIT
WCI    - WIND CHILL INDEX IN FAHRENHEIT
TC     - TEMPERATURE IN CELSIUS WHICH IS ALSO KNOWN AS
         TEMPERATURE IN CENTIGRADE
AFB    - AIR FORCE BASE
         LUKE AFB IS LUKE AIR FORCE BASE
         DAVIS-MONTHAN IS DAVIS-MONTHAN AIR FORCE BASE
NAS    - NAVAL AIR STATION
         EL CENTRO NAS IS EL CENTRO NAVAL AIR STATION
N/A    - NOT AVAILABLE



USA.gov is the U.S. government's official web portal to all federal, state and local government web resources and services.